Flag for Italy Weather past 2 weeks in Naples, Italy

Now
79 °F

Passing clouds.


Feels Like: 81 °F
Forecast: 72 / 94 °F
Wind: 5 mph from Northeast

Location: Naples / Capodichino

Current Time: Aug 1, 2015 at 8:38:59 AM

Latest Report: Aug 1, 2015 at 7:50 AM


Visibility: N/A

Pressure: 29.89 "Hg

Humidity: 65%

Dew point: 66 °F

Location of NaplesLocation

Historic Weather in Naples — Graph

°F

Naples temperature yesterday

Maximum temperature yesterday: 93 °F (at 12:50 PM)
Minimum temperature yesterday: 77 °F (at 4:50 AM)
Average temperature yesterday: 86 °F

Past Weeks' High & Low Weather Summary

 TemperatureHumidityPressure
High99 °F (Jul 17, 2:50 PM)94% (Jul 20, 4:50 AM)30.07 "Hg (Jul 20, 4:50 AM)
Low36 °F (Jul 29, 4:20 AM)20% (Jul 18, 4:20 PM)29.77 "Hg (Jul 23, 3:50 PM)
Average83 °F62%29.89 "Hg
* Reported Jul 17 7:20 AM — Aug 1 7:20 AM, Naples, Weather by CustomWeather, © 2015

Note: Actual official high and low records may vary slightly from our data, if they occured in-between our weather recording intervals... More about our weather records

Advertising

Naples weather history for previous 24 hours

 ConditionsComfort  
Time TempWeatherWind HumidityBarometerVisibility
7:20 AM
Sat, Aug 1
79 °FPassing clouds.3 mph61%29.89 "HgN/A
6:50 AM77 °FClear.7 mph69%29.89 "Hg10 mi
6:20 AM77 °FClear.6 mph65%29.89 "Hg10 mi
5:50 AM77 °FClear.3 mph69%29.89 "Hg10 mi
4:50 AM79 °FClear.5 mph61%29.86 "Hg10 mi
4:20 AM79 °FClear.3 mph61%29.86 "Hg10 mi
3:50 AM79 °FPassing clouds.3 mph61%29.86 "HgN/A
3:20 AM79 °FClear.5 mph61%29.86 "Hg10 mi
2:50 AM79 °FClear.5 mph65%29.86 "Hg10 mi
2:20 AM79 °FClear.5 mph65%29.86 "Hg10 mi
1:50 AM79 °FPassing clouds.5 mph65%29.86 "HgN/A
1:20 AM81 °FPassing clouds.5 mph62%29.86 "HgN/A
12:50 AM81 °FPassing clouds.5 mph62%29.86 "HgN/A
12:20 AM81 °FClear.2 mph62%29.86 "Hg10 mi
11:50 PM
Fri, Jul 31
82 °FClear.2 mph58%29.86 "Hg10 mi
11:20 PM82 °FClear.5 mph58%29.86 "Hg10 mi
10:50 PM82 °FClear.5 mph58%29.83 "Hg10 mi
10:20 PM84 °FPassing clouds.6 mph55%29.83 "HgN/A
9:50 PM84 °FClear.2 mph62%29.83 "Hg10 mi
9:20 PM82 °FPassing clouds.6 mph66%29.83 "HgN/A
8:50 PM84 °FPassing clouds.6 mph66%29.80 "HgN/A
8:20 PM86 °FSunny.2 mph38%29.80 "Hg10 mi
7:50 PM86 °FSunny.5 mph43%29.80 "Hg10 mi
7:20 PM88 °FSunny.5 mph43%29.80 "Hg10 mi
6:50 PM88 °FPassing clouds.7 mph38%29.80 "HgN/A
6:20 PM90 °FPassing clouds.8 mph36%29.80 "HgN/A
5:50 PM90 °FPassing clouds.8 mph41%29.80 "HgN/A
5:20 PM91 °FPassing clouds.7 mph38%29.80 "HgN/A
4:50 PM90 °FSunny.9 mph41%29.80 "Hg10 mi
4:20 PM93 °FPassing clouds.8 mph41%29.80 "HgN/A
3:50 PM93 °FPassing clouds.7 mph28%29.80 "HgN/A
3:20 PM93 °FPassing clouds.7 mph30%29.80 "HgN/A
2:50 PM91 °FPassing clouds.9 mph38%29.83 "HgN/A
2:20 PM91 °FPassing clouds.9 mph49%29.83 "HgN/A
1:50 PM91 °FPassing clouds.9 mph34%29.83 "HgN/A
1:20 PM93 °FPassing clouds.8 mph34%29.80 "HgN/A
12:50 PM93 °FPassing clouds.6 mph32%29.83 "HgN/A
12:20 PM91 °FScattered clouds.5 mph34%29.80 "HgN/A
11:50 AM91 °FScattered clouds.6 mph36%29.80 "HgN/A
11:20 AM90 °FScattered clouds.6 mph29%29.80 "HgN/A
10:50 AM90 °FScattered clouds.6 mph36%29.80 "HgN/A
10:20 AM86 °FScattered clouds.7 mph38%29.83 "HgN/A
9:20 AM84 °FSunny.1 mph51%29.86 "Hg10 mi
8:50 AM82 °FPassing clouds.3 mph62%29.83 "HgN/A
8:20 AM81 °FPassing clouds.5 mph66%29.83 "HgN/A
Weather by CustomWeather, © 2015

See weather overviewHow to use our weather pages